Location: ??????????
(54.7560°N, 39.1389°E)
Time: 07:07:08
(UTC+00:00)

Lacrosse 4 Rocket - Pass Details

Date: 19 May 2025
Orbit: 513 x 576 km, 68.0° (Epoch: 15 June)

Event Time Altitude Azimuth Distance (km) Brightness Sun altitude
Rises 23:39:57 0° 321° (NW) 2,715 5.1 -9.5°
Reaches altitude 10° 23:42:17 10° 331° (NNW) 1,830 4.4 -9.3°
Maximum altitude 23:46:03 34° 37° (NE) 934 3.4 -9.0°
Drops below altitude 10° 23:49:52 10° 104° (ESE) 1,857 4.3 -8.7°
Sets 23:52:15 0° 114° (ESE) 2,760 5.1 -8.5°
